Location: Équennes
(49.7375°N, 1.9622°E)
Time: 01:06:11
(UTC+00:00)

SL-16 R/B - Pass Details

Date: 28 January 2023
Orbit: 842 x 846 km, 71.0° (Epoch: 30 March)

Event Time Altitude Azimuth Distance (km) Brightness Sun altitude
Rises 19:57:07 0° 221° (SW) 3,389 5.7 -31.7°
Reaches altitude 10° 19:59:35 10° 225° (SW) 2,458 5.0 -32.1°
Enters shadow 20:04:21 52° 271° (W) 1,040 2.8 -32.9°
